User: anonymous   Login
Location: Bamobli
(6.6379°N, 10.9396°W)
Time: 17:39:40
(UTC+00:00)
Language:

Cosmos 1689 Rocket - Orbit

View from above orbital plane
View from above orbital plane
View from above satellite
View from above satellite

Ground track
Ground track

The orbit data is extracted from the following two-line orbital elements,

1 16111U 85090B   20228.44383262  .00005646  00000-0  58885-4 0  9997
2 16111  97.4839  45.0054 0012286  58.2091 302.0363 15.64896726924257
Epoch (UTC): 15 August 2020 10:39:07
Eccentricity: 0.0012286
inclination: 97.4839°
perigee height: 365 km
apogee height: 382 km
right ascension of ascending node: 45.0054°
argument of perigee: 58.2091°
revolutions per day: 15.64896726
mean anomaly at epoch: 302.0363°
orbit number at epoch: 92425

The dashed part of the orbit path shows where the satellite is in the earth's shadow,  

DLR